Home > Weather > Warren > Past weeks

Flag for USA Past Weather in Warren, Michigan, USA — Yesterday and Last 2 Weeks

Now
71 °F

Fog.


Feels Like: 64 °F
Forecast: 72 / 86 °F
Wind: 3 mph from North

Location: Detroit City Airport

Current Time: Aug 28, 2016 at 4:55:22 AM

Latest Report: Aug 28, 2016 at 3:53 AM


Visibility: 4 mi

Pressure: 30.12 "Hg

Humidity: 100%

Dew Point: 71 °F

Location of WarrenLocation

Past Weather in Warren — Graph

°F

Warren Temperature Yesterday

Maximum temperature yesterday: 83 °F (at 12:53 PM)
Minimum temperature yesterday: 71 °F (at 3:53 AM)
Average temperature yesterday: 74 °F

High & Low Weather Summary for the Past Weeks

 TemperatureHumidityPressure
High86 °F (Aug 13, 2:53 PM)100% (Aug 13, 2:53 AM)30.27 "Hg (Aug 13, 2:53 AM)
Low59 °F (Aug 22, 5:53 AM)39% (Aug 22, 4:53 PM)29.28 "Hg (Aug 13, 6:53 AM)
Average75 °F79%30.00 "Hg
* Reported Aug 13 2:53 AM — Aug 28 2:53 AM, Warren, Weather by CustomWeather, © 2016

Note: Actual official high and low records may vary slightly from our data, if they occured in-between our weather recording intervals... More about our weather records

Advertising

Warren Weather History for the Previous 24 Hours

Scroll right to see more
 ConditionsComfort  
Time TempWeatherWind HumidityBarometerVisibility
2:53 AM
Sun, Aug 28
71 °FFog.3 mph100%30.11 "Hg5 mi
1:53 AM71 °FFog.No wind100%30.11 "Hg6 mi
12:53 AM72 °FPassing clouds.No wind100%30.11 "Hg10 mi
11:53 PM
Sat, Aug 27
72 °FClear.3 mph97%30.12 "Hg10 mi
10:53 PM71 °FClear.No wind100%30.11 "Hg10 mi
9:53 PM71 °FClear.7 mph100%30.11 "Hg10 mi
8:53 PM71 °FSunny.8 mph100%30.10 "Hg10 mi
7:53 PM73 °FPartly sunny.8 mph100%30.09 "Hg10 mi
6:53 PM73 °FSunny.5 mph97%30.09 "Hg9 mi
5:53 PM72 °FPartly sunny.9 mph100%30.09 "Hg8 mi
5:04 PM71 °FLight rain. Fog.9 mph100%30.12 "Hg4 mi
4:53 PM71 °FThundershowers. Fog.9 mph100%30.11 "Hg3 mi
3:53 PM71 °FStrong thunderstorms. Fog.8 mph100%30.11 "Hg3 mi
2:53 PM81 °FThundershowers. Partly sunny.6 mph62%30.09 "Hg10 mi
1:53 PM83 °FScattered clouds.10 mph55%30.08 "Hg10 mi
12:53 PM83 °FSunny.12 mph59%30.11 "Hg10 mi
11:53 AM81 °FPassing clouds.10 mph67%30.13 "Hg10 mi
10:53 AM79 °FSunny.14 mph72%30.14 "Hg10 mi
9:53 AM76 °FSunny.12 mph80%30.15 "Hg10 mi
8:53 AM76 °FSunny.9 mph82%30.14 "Hg10 mi
7:53 AM73 °FSunny.6 mph90%30.14 "Hg10 mi
6:53 AM72 °FClear.5 mph93%30.14 "Hg10 mi
5:53 AM72 °FClear.5 mph100%30.13 "Hg9 mi
4:53 AM72 °FClear.No wind97%30.14 "Hg9 mi
Weather by CustomWeather, © 2016

See weather overviewHow to use our weather pages